Location: Fort Worth, Tx
(32.7431°N, 97.3695°W)
Time: 11:18:48
(UTC-04:00)

A-11 Canister half - Pass Details

Date: 21 August 2024
Orbit: 1524 x 1684 km, 47.3° (Epoch: 13 September)

Event Time Altitude Azimuth Distance (km) Brightness Sun altitude
Rises 02:02:19 0° 290° (WNW) 4,912 11.9 -44.7°
Reaches altitude 10° 02:05:55 10° 299° (WNW) 3,936 11.4 -44.9°
Maximum altitude 02:14:58 35° 2° (N) 2,484 10.3 -45.1°
Drops below altitude 10° 02:24:01 10° 66° (ENE) 3,932 11.3 -45.3°
Sets 02:27:37 0° 75° (ENE) 4,906 11.8 -45.3°
